NIMBUS 2 DEB, 40648

Orbit data source: Space-Track

NIMBUS 2 DEB, 40648 is space debris in SSO originally from a launch on Sun, 15 May 1966 UTC launched from the Air Force Western Test Range (AFWTR). Debris objects in space refer to the collection of defunct objects orbiting the Earth. Examples of debris include non-operational satellites, rocket bodies, and fragments generated from explosions, collisions, or faulty payload assembly.

Loading next visibility...
Identifier
40648, 1966-040BM
Orbit
SSO
Country
Flag of USUS
Related business
Manufacturer
Unknown
Mission
Spacecraft
Bus & Motor
Unknown
Mass
Unknown
Launch date (UTC)
1966-05-15 (60 years ago)
Launch vehicle
Unknown
Launch site
Air Force Western Test Range (AFWTR)
Object type
Payload
Rocket body
Debris
Shape & HBR
Unknown shape, 0.1 m
Radar Cross Section
Medium (>0.1 m² and <1 m²)

Expand to show TLE details & history
Last TLE update: 2 days ago

TLE from 2 days ago
0 NIMBUS 2 DEB
1 40648U 66040BM  26171.47735611  .00001935  00000-0  31003-2 0  9996
2 40648 100.2058   2.5494 0042546 113.5603 247.0007 13.49940030543492
Epoch: 2026-06-20T11:27Z
TLE epoch observation values (Epoch: 2026-06-20T11:27:23.567Z)
Latitude
-0.00003°
Longitude
-77.99021°
Altitude
1,087.749 km
Speed
7.302 km/s
True Right ascension
00h 10m 11s
True Declination
0° 00' 00"
Sunlit
Object was in daylight at epoch
Visualization orbit readout
Latitude
Unknown
Longitude
Unknown
Altitude
Unknown
Speed
Unknown
Apparent Right ascension
Unknown
Apparent Declination
Unknown
Sunlit
N/A
Visualization observer readout
Local Sidereal Time
21:37:54
Azimuth
Unknown
Elevation
Unknown
Doppler factor
Unknown
Orbital elements
Apogee altitude
1,101.495 km
Perigee altitude
1,038.119 km
Semi-major axis
7,447.944 km
Eccentricity
0.00425
Inclination
100.2058°
RAAN
2.5494°
Arg. of periapsis
113.5603°
True anomaly
246.55285°
Mean anomaly
247.0007°
Eccentric anomaly
246.77668°
Mean motion
3.37667 °/min
Orbital period
106.61 mins
BSTAR
0.0031003
Loading maneuver chart data...
Computing Atmospheric mass density...
Loading historical data...
Loading historical data...
Loading historical data...
Loading historical data...
Loading historical data...
Loading historical data...
Loading historical data...

Documentation

Showing up to 5 results
|